| time (UTC) | temp F | wind direction | speed knots | gust knots | rain 1hr in | rain 24hr in | rain mn in | humidity % | barometer mb |
| 20260507164403 | 62 | 251 | 2.6 | 7.0 | 0.00 | 0.00 | 0.00 | 53 | 1012.5 |
| 20260507163903 | 62 | 261 | 2.6 | 6.1 | 0.00 | 0.00 | 0.00 | 53 | 1012.4 |
| 20260507163403 | 62 | 276 | 2.6 | 7.0 | 0.00 | 0.00 | 0.00 | 55 | 1012.5 |
| 20260507162902 | 62 | 284 | 3.5 | 7.8 | 0.00 | 0.00 | 0.00 | 53 | 1012.5 |
| 20260507162402 | 62 | 293 | 3.5 | 7.8 | 0.00 | 0.00 | 0.00 | 53 | 1012.4 |
| 20260507161902 | 62 | 279 | 3.5 | 6.1 | 0.00 | 0.00 | 0.00 | 53 | 1012.4 |
| 20260507161401 | 62 | 249 | 2.6 | 6.1 | 0.00 | 0.00 | 0.00 | 51 | 1012.4 |
| 20260507160902 | 63 | 298 | 3.5 | 7.8 | 0.00 | 0.00 | 0.00 | 51 | 1012.4 |
| 20260507160400 | 63 | 296 | 4.3 | 7.8 | 0.00 | 0.00 | 0.00 | 51 | 1012.4 |
| 20260507155858 | 63 | 325 | 5.2 | 8.7 | 0.00 | 0.00 | 0.00 | 49 | 1012.3 |
| 20260507155358 | 64 | 306 | 4.3 | 8.7 | 0.00 | 0.00 | 0.00 | 50 | 1012.2 |
| 20260507154858 | 64 | 325 | 4.3 | 8.7 | 0.00 | 0.00 | 0.00 | 48 | 1012.2 |
| 20260507154359 | 64 | 286 | 4.3 | 8.7 | 0.00 | 0.00 | 0.00 | 48 | 1012.2 |
| 20260507153856 | 64 | 265 | 4.3 | 7.8 | 0.00 | 0.00 | 0.00 | 48 | 1012.2 |
| 20260507153606 | 65 | 317 | 3.5 | 7.0 | 0.00 | 0.00 | 0.00 | 48 | 1012.3 |
| 20260507153347 | 65 | 317 | 3.5 | 7.0 | 0.00 | 0.00 | 0.00 | 48 | 1012.3 |
| 20260507152845 | 65 | 290 | 4.3 | 7.8 | 0.00 | 0.00 | 0.00 | 49 | 1012.3 |
| 20260507152545 | 65 | 290 | 4.3 | 11.3 | 0.00 | 0.00 | 0.00 | 52 | 1012.3 |
| 20260507152342 | 65 | 247 | 4.3 | 11.3 | 0.00 | 0.00 | 0.00 | 48 | 1012.3 |
| 20260507151842 | 65 | 290 | 4.3 | 11.3 | 0.00 | 0.00 | 0.00 | 52 | 1012.3 |
| 20260507151342 | 64 | 293 | 4.3 | 8.7 | 0.00 | 0.00 | 0.00 | 48 | 1012.2 |
| 20260507150839 | 64 | 245 | 5.2 | 9.6 | 0.00 | 0.00 | 0.00 | 50 | 1012.3 |
| 20260507150340 | 64 | 310 | 5.2 | 9.6 | 0.00 | 0.00 | 0.00 | 48 | 1012.3 |
| 20260507145837 | 65 | 292 | 4.3 | 8.7 | 0.00 | 0.00 | 0.00 | 48 | 1012.3 |
| 20260507145339 | 65 | 300 | 3.5 | 8.7 | 0.00 | 0.00 | 0.00 | 49 | 1012.2 |
| 20260507144836 | 65 | 299 | 4.3 | 9.6 | 0.00 | 0.00 | 0.00 | 47 | 1012.2 |
| 20260507144336 | 65 | 300 | 5.2 | 9.6 | 0.00 | 0.00 | 0.00 | 46 | 1012.2 |
| 20260507143837 | 66 | 274 | 5.2 | 11.3 | 0.00 | 0.00 | 0.00 | 44 | 1012.1 |
| 20260507143334 | 67 | 296 | 5.2 | 11.3 | 0.00 | 0.00 | 0.00 | 46 | 1012.2 |
| 20260507142833 | 66 | 270 | 5.2 | 8.7 | 0.00 | 0.00 | 0.00 | 48 | 1012.1 |
| 20260507142332 | 65 | 298 | 5.2 | 8.7 | 0.00 | 0.00 | 0.00 | 47 | 1012.1 |
| 20260507141832 | 65 | 296 | 5.2 | 8.7 | 0.00 | 0.00 | 0.00 | 48 | 1012.1 |
| 20260507141332 | 65 | 258 | 5.2 | 11.3 | 0.00 | 0.00 | 0.00 | 47 | 1012.2 |
| 20260507140831 | 65 | 340 | 6.1 | 11.3 | 0.00 | 0.00 | 0.00 | 49 | 1012.2 |
| 20260507140325 | 66 | 237 | 5.2 | 10.4 | 0.00 | 0.00 | 0.00 | 47 | 1012.2 |
| 20260507135827 | 66 | 302 | 5.2 | 10.4 | 0.00 | 0.00 | 0.00 | 46 | 1012.1 |
| 20260507135321 | 66 | 264 | 6.1 | 13.0 | 0.00 | 0.00 | 0.00 | 46 | 1012.2 |
| 20260507134809 | 66 | 290 | 6.1 | 13.0 | 0.00 | 0.00 | 0.00 | 46 | 1012.2 |
| 20260507134304 | 66 | 252 | 6.1 | 12.2 | 0.00 | 0.00 | 0.00 | 49 | 1012.2 |
| 20260507133804 | 65 | 321 | 6.1 | 12.2 | 0.00 | 0.00 | 0.00 | 47 | 1012.2 |
| 20260507133304 | 66 | 257 | 6.1 | 14.8 | 0.00 | 0.00 | 0.00 | 46 | 1012.3 |
| 20260507132803 | 65 | 271 | 6.1 | 14.8 | 0.00 | 0.00 | 0.00 | 49 | 1012.3 |
| 20260507132307 | 66 | 339 | 6.1 | 11.3 | 0.00 | 0.00 | 0.00 | 47 | 1012.3 |
| 20260507131804 | 67 | 264 | 6.1 | 11.3 | 0.00 | 0.00 | 0.00 | 46 | 1012.3 |
| 20260507131304 | 67 | 310 | 5.2 | 13.0 | 0.00 | 0.00 | 0.00 | 47 | 1012.3 |
| 20260507130802 | 67 | 333 | 7.0 | 13.0 | 0.00 | 0.00 | 0.00 | 48 | 1012.2 |
| 20260507130303 | 67 | 285 | 7.0 | 14.8 | 0.00 | 0.00 | 0.00 | 46 | 1012.3 |
| 20260507125802 | 68 | 262 | 6.1 | 14.8 | 0.00 | 0.00 | 0.00 | 46 | 1012.3 |
| 20260507125306 | 68 | 321 | 5.2 | 10.4 | 0.00 | 0.00 | 0.00 | 49 | 1012.3 |
| 20260507124801 | 67 | 274 | 4.3 | 10.4 | 0.00 | 0.00 | 0.00 | 50 | 1012.3 |
| 20260507124300 | 67 | 265 | 6.1 | 13.9 | 0.00 | 0.00 | 0.00 | 47 | 1012.3 |
| 20260507123802 | 67 | 259 | 6.1 | 13.9 | 0.00 | 0.00 | 0.00 | 49 | 1012.3 |
| 20260507123300 | 66 | 256 | 4.3 | 13.9 | 0.00 | 0.00 | 0.00 | 52 | 1012.3 |
| 20260507122759 | 65 | 259 | 5.2 | 12.2 | 0.00 | 0.00 | 0.00 | 49 | 1012.2 |
| 20260507122300 | 66 | 284 | 7.0 | 12.2 | 0.00 | 0.00 | 0.00 | 49 | 1012.3 |
| 20260507121758 | 66 | 260 | 7.0 | 13.0 | 0.00 | 0.00 | 0.00 | 49 | 1012.3 |
| 20260507121252 | 66 | 196 | 6.1 | 13.0 | 0.00 | 0.00 | 0.00 | 46 | 1012.3 |
| 20260507120742 | 66 | 285 | 7.0 | 13.0 | 0.00 | 0.00 | 0.00 | 47 | 1012.2 |
| 20260507120242 | 67 | 235 | 7.0 | 13.0 | 0.00 | 0.00 | 0.00 | 46 | 1012.3 |
| 20260507115744 | 67 | 284 | 6.1 | 13.0 | 0.00 | 0.00 | 0.00 | 48 | 1012.2 |
| 20260507115242 | 66 | 279 | 7.0 | 16.5 | 0.00 | 0.00 | 0.00 | 49 | 1012.2 |
| 20260507114742 | 66 | 294 | 7.0 | 16.5 | 0.00 | 0.00 | 0.00 | 47 | 1012.2 |
| 20260507114241 | 65 | 269 | 5.2 | 12.2 | 0.00 | 0.00 | 0.00 | 49 | 1012.3 |
| 20260507113740 | 64 | 271 | 6.1 | 13.9 | 0.00 | 0.00 | 0.00 | 50 | 1012.2 |
| 20260507113242 | 65 | 309 | 7.0 | 13.9 | 0.00 | 0.00 | 0.00 | 50 | 1012.3 |
| 20260507112742 | 64 | 263 | 6.1 | 13.0 | 0.00 | 0.00 | 0.00 | 53 | 1012.3 |
| 20260507112240 | 64 | 221 | 5.2 | 12.2 | 0.00 | 0.00 | 0.00 | 50 | 1012.2 |
| 20260507111741 | 64 | 251 | 5.2 | 12.2 | 0.00 | 0.00 | 0.00 | 48 | 1012.2 |
| 20260507111239 | 65 | 274 | 5.2 | 10.4 | 0.00 | 0.00 | 0.00 | 47 | 1012.2 |
| 20260507110739 | 65 | 235 | 6.1 | 13.9 | 0.00 | 0.00 | 0.00 | 45 | 1012.2 |
| 20260507110239 | 65 | 228 | 6.1 | 13.9 | 0.00 | 0.00 | 0.00 | 47 | 1012.2 |
| 20260507105739 | 65 | 275 | 5.2 | 13.9 | 0.00 | 0.00 | 0.00 | 51 | 1012.2 |
| 20260507105238 | 64 | 300 | 5.2 | 13.9 | 0.00 | 0.00 | 0.00 | 50 | 1012.2 |
| 20260507104738 | 64 | 250 | 5.2 | 9.6 | 0.00 | 0.00 | 0.00 | 49 | 1012.2 |
| 20260507104236 | 64 | 244 | 6.1 | 11.3 | 0.00 | 0.00 | 0.00 | 50 | 1012.3 |
| 20260507103736 | 65 | 281 | 6.1 | 11.3 | 0.00 | 0.00 | 0.00 | 49 | 1012.3 |
| 20260507103236 | 65 | 227 | 5.2 | 12.2 | 0.00 | 0.00 | 0.00 | 49 | 1012.2 |
| 20260507102736 | 65 | 246 | 5.2 | 12.2 | 0.00 | 0.00 | 0.00 | 51 | 1012.3 |
| 20260507102234 | 66 | 278 | 6.1 | 9.6 | 0.00 | 0.00 | 0.00 | 50 | 1012.3 |
| 20260507101736 | 66 | 271 | 7.0 | 11.3 | 0.00 | 0.00 | 0.00 | 47 | 1012.3 |
| 20260507101246 | 66 | 250 | 7.0 | 12.2 | 0.00 | 0.00 | 0.00 | 47 | 1012.3 |
| 20260507100732 | 66 | 271 | 7.0 | 12.2 | 0.00 | 0.00 | 0.00 | 48 | 1012.3 |
| 20260507100231 | 65 | 229 | 6.1 | 11.3 | 0.00 | 0.00 | 0.00 | 50 | 1012.2 |
| 20260507095731 | 65 | 234 | 6.1 | 12.2 | 0.00 | 0.00 | 0.00 | 50 | 1012.2 |
| 20260507095232 | 65 | 238 | 7.8 | 14.8 | 0.00 | 0.00 | 0.00 | 51 | 1012.3 |
| 20260507094732 | 64 | 259 | 7.0 | 14.8 | 0.00 | 0.00 | 0.00 | 51 | 1012.2 |
| 20260507094241 | 64 | 209 | 4.3 | 11.3 | 0.00 | 0.00 | 0.00 | 51 | 1012.2 |
| 20260507093731 | 63 | 163 | 3.5 | 7.0 | 0.00 | 0.00 | 0.00 | 54 | 1012.2 |
| 20260507093231 | 62 | 261 | 3.5 | 7.0 | 0.00 | 0.00 | 0.00 | 55 | 1012.3 |
| 20260507092732 | 62 | 213 | 3.5 | 7.0 | 0.00 | 0.00 | 0.00 | 57 | 1012.3 |
| 20260507092232 | 62 | 242 | 5.2 | 11.3 | 0.00 | 0.00 | 0.00 | 58 | 1012.3 |
| 20260507091738 | 61 | 242 | 5.2 | 11.3 | 0.00 | 0.00 | 0.00 | 57 | 1012.3 |
| 20260507091219 | 61 | 235 | 5.2 | 11.3 | 0.00 | 0.00 | 0.00 | 59 | 1012.2 |
| 20260507090717 | 61 | 274 | 5.2 | 11.3 | 0.00 | 0.00 | 0.00 | 58 | 1012.2 |
| 20260507090214 | 60 | 219 | 5.2 | 11.3 | 0.00 | 0.00 | 0.00 | 61 | 1012.2 |
| 20260507085713 | 60 | 261 | 5.2 | 11.3 | 0.00 | 0.00 | 0.00 | 61 | 1012.3 |
| 20260507085213 | 60 | 267 | 6.1 | 12.2 | 0.00 | 0.00 | 0.00 | 59 | 1012.2 |
| 20260507084713 | 59 | 258 | 5.2 | 12.2 | 0.00 | 0.00 | 0.00 | 59 | 1012.2 |
| 20260507084216 | 59 | 245 | 5.2 | 13.0 | 0.00 | 0.00 | 0.00 | 61 | 1012.1 |
| 20260507083713 | 59 | 149 | 7.0 | 13.0 | 0.00 | 0.00 | 0.00 | 58 | 1012.1 |
| 20260507083214 | 60 | 227 | 7.0 | 13.9 | 0.00 | 0.00 | 0.00 | 59 | 1012.0 |
| 20260507082713 | 60 | 232 | 7.0 | 13.9 | 0.00 | 0.00 | 0.00 | 61 | 1012.0 |
| 20260507082211 | 60 | 269 | 7.0 | 16.5 | 0.00 | 0.00 | 0.00 | 58 | 1012.0 |
| 20260507081711 | 60 | 259 | 7.0 | 16.5 | 0.00 | 0.00 | 0.00 | 61 | 1012.0 |
| 20260507081211 | 60 | 238 | 7.0 | 13.9 | 0.00 | 0.00 | 0.00 | 60 | 1011.9 |
| 20260507080711 | 60 | 285 | 7.0 | 13.0 | 0.00 | 0.00 | 0.00 | 60 | 1011.9 |
| 20260507080217 | 60 | 259 | 7.0 | 15.6 | 0.00 | 0.00 | 0.00 | 62 | 1011.8 |
| 20260507075713 | 59 | 305 | 7.0 | 15.6 | 0.00 | 0.00 | 0.00 | 63 | 1011.7 |
| 20260507075208 | 59 | 229 | 7.8 | 13.9 | 0.00 | 0.00 | 0.00 | 62 | 1011.8 |
| 20260507074709 | 59 | 259 | 7.8 | 16.5 | 0.00 | 0.00 | 0.00 | 65 | 1011.8 |
| 20260507074205 | 58 | 238 | 7.8 | 16.5 | 0.00 | 0.00 | 0.00 | 68 | 1011.7 |
| 20260507073703 | 58 | 279 | 7.8 | 19.1 | 0.00 | 0.00 | 0.00 | 66 | 1011.6 |
| 20260507073155 | 58 | 281 | 7.0 | 19.1 | 0.00 | 0.00 | 0.00 | 66 | 1011.7 |
| 20260507072652 | 57 | 239 | 7.0 | 15.6 | 0.00 | 0.00 | 0.00 | 67 | 1011.7 |
| 20260507072138 | 57 | 269 | 7.0 | 15.6 | 0.00 | 0.00 | 0.00 | 69 | 1011.6 |
| 20260507071632 | 56 | 257 | 7.0 | 15.6 | 0.00 | 0.00 | 0.00 | 71 | 1011.6 |
| 20260507071132 | 56 | 252 | 7.0 | 13.9 | 0.00 | 0.00 | 0.00 | 70 | 1011.6 |
| 20260507070621 | 55 | 260 | 6.1 | 13.9 | 0.00 | 0.00 | 0.00 | 72 | 1011.5 |
| 20260507070119 | 54 | 271 | 6.1 | 13.9 | 0.00 | 0.00 | 0.00 | 73 | 1011.6 |
| 20260507065613 | 54 | 268 | 6.1 | 15.6 | 0.00 | 0.00 | 0.00 | 74 | 1011.6 |
| 20260507065105 | 53 | 246 | 6.1 | 16.5 | 0.00 | 0.00 | 0.00 | 75 | 1011.6 |
| 20260507064603 | 53 | 249 | 6.1 | 16.5 | 0.00 | 0.00 | 0.00 | 74 | 1011.6 |
| 20260507064104 | 53 | 258 | 6.1 | 13.9 | 0.00 | 0.00 | 0.00 | 74 | 1011.6 |
| 20260507063604 | 53 | 312 | 5.2 | 13.9 | 0.00 | 0.00 | 0.00 | 74 | 1011.6 |
| 20260507063103 | 53 | 209 | 6.1 | 14.8 | 0.00 | 0.00 | 0.00 | 73 | 1011.5 |
| 20260507062602 | 53 | 217 | 7.0 | 14.8 | 0.00 | 0.00 | 0.00 | 73 | 1011.4 |
| 20260507062101 | 54 | 254 | 7.0 | 13.9 | 0.00 | 0.00 | 0.00 | 73 | 1011.3 |
| 20260507061601 | 54 | 200 | 7.8 | 13.9 | 0.00 | 0.00 | 0.00 | 72 | 1011.3 |
| 20260507061109 | 54 | 269 | 7.8 | 13.9 | 0.00 | 0.00 | 0.00 | 72 | 1011.4 |
| 20260507060601 | 54 | 239 | 7.8 | 14.8 | 0.00 | 0.00 | 0.00 | 73 | 1011.4 |
| 20260507055601 | 53 | 281 | 7.0 | 14.8 | 0.00 | 0.00 | 0.00 | 76 | 1011.3 |
| 20260507055102 | 53 | 234 | 7.0 | 14.8 | 0.00 | 0.00 | 0.00 | 76 | 1011.1 |
| 20260507054602 | 53 | 215 | 6.1 | 12.2 | 0.00 | 0.00 | 0.00 | 76 | 1011.2 |
| 20260507054101 | 52 | 238 | 5.2 | 12.2 | 0.00 | 0.00 | 0.00 | 78 | 1011.1 |
| 20260507053602 | 52 | 227 | 4.3 | 12.2 | 0.00 | 0.00 | 0.00 | 77 | 1011.0 |
| 20260507053101 | 52 | 242 | 4.3 | 8.7 | 0.00 | 0.00 | 0.00 | 78 | 1011.1 |
| 20260507052603 | 52 | 229 | 6.1 | 12.2 | 0.00 | 0.00 | 0.00 | 78 | 1011.0 |
| 20260507052055 | 52 | 264 | 7.0 | 12.2 | 0.00 | 0.00 | 0.00 | 78 | 1010.8 |
| 20260507051553 | 52 | 202 | 7.0 | 13.0 | 0.00 | 0.00 | 0.00 | 79 | 1010.8 |
| 20260507051042 | 51 | 213 | 6.1 | 13.0 | 0.00 | 0.00 | 0.00 | 80 | 1010.7 |
| 20260507050537 | 51 | 221 | 5.2 | 12.2 | 0.00 | 0.00 | 0.00 | 79 | 1010.7 |
| 20260507050036 | 51 | 215 | 4.3 | 8.7 | 0.00 | 0.00 | 0.00 | 81 | 1010.7 |
| 20260507045535 | 51 | 242 | 4.3 | 9.6 | 0.00 | 0.00 | 0.00 | 81 | 1010.6 |
| 20260507045037 | 51 | 232 | 4.3 | 9.6 | 0.00 | 0.00 | 0.00 | 82 | 1010.6 |
| 20260507044535 | 51 | 244 | 3.5 | 7.0 | 0.00 | 0.00 | 0.00 | 82 | 1010.5 |
| 20260507044035 | 51 | 284 | 4.3 | 10.4 | 0.00 | 0.00 | 0.00 | 83 | 1010.4 |
| 20260507043533 | 51 | 230 | 5.2 | 10.4 | 0.00 | 0.00 | 0.00 | 83 | 1010.4 |
| 20260507043033 | 51 | 244 | 5.2 | 10.4 | 0.00 | 0.00 | 0.00 | 83 | 1010.3 |
| 20260507042533 | 51 | 213 | 5.2 | 8.7 | 0.00 | 0.00 | 0.00 | 83 | 1010.2 |
| 20260507042034 | 51 | 236 | 4.3 | 7.8 | 0.00 | 0.00 | 0.00 | 83 | 1010.2 |
| 20260507041533 | 51 | 229 | 3.5 | 7.8 | 0.00 | 0.00 | 0.00 | 83 | 1010.2 |
| 20260507041036 | 51 | 257 | 2.6 | 6.1 | 0.00 | 0.00 | 0.00 | 83 | 1010.2 |
| 20260507040533 | 51 | 257 | 3.5 | 8.7 | 0.00 | 0.00 | 0.00 | 83 | 1010.1 |
| 20260507040034 | 51 | 250 | 4.3 | 9.6 | 0.00 | 0.00 | 0.00 | 83 | 1010.0 |
| 20260507035531 | 51 | 244 | 4.3 | 9.6 | 0.00 | 0.00 | 0.00 | 83 | 1009.8 |
| 20260507035032 | 51 | 243 | 3.5 | 8.7 | 0.00 | 0.00 | 0.00 | 83 | 1009.7 |
| 20260507034533 | 51 | 241 | 3.5 | 7.8 | 0.00 | 0.00 | 0.00 | 83 | 1009.7 |
| 20260507034029 | 51 | 261 | 2.6 | 6.1 | 0.00 | 0.00 | 0.00 | 82 | 1009.7 |
| 20260507033529 | 51 | 255 | 3.5 | 7.8 | 0.00 | 0.00 | 0.00 | 82 | 1009.7 |
| 20260507033023 | 52 | 230 | 4.3 | 8.7 | 0.00 | 0.00 | 0.00 | 82 | 1009.6 |
| 20260507032517 | 52 | 218 | 4.3 | 8.7 | 0.00 | 0.00 | 0.00 | 82 | 1009.7 |
| 20260507032008 | 52 | 257 | 4.3 | 8.7 | 0.00 | 0.00 | 0.00 | 82 | 1009.7 |
| 20260507031505 | 52 | 276 | 4.3 | 8.7 | 0.00 | 0.00 | 0.00 | 82 | 1009.7 |
| 20260507031005 | 52 | 221 | 4.3 | 10.4 | 0.00 | 0.00 | 0.00 | 82 | 1009.5 |
| 20260507030512 | 52 | 281 | 4.3 | 10.4 | 0.00 | 0.00 | 0.00 | 82 | 1009.5 |
| 20260507030003 | 52 | 225 | 3.5 | 7.0 | 0.00 | 0.00 | 0.00 | 82 | 1009.5 |
| 20260507025503 | 52 | 234 | 3.5 | 7.0 | 0.00 | 0.00 | 0.00 | 82 | 1009.5 |
| 20260507025003 | 53 | 242 | 3.5 | 7.0 | 0.00 | 0.00 | 0.00 | 82 | 1009.4 |
| 20260507024503 | 53 | 262 | 4.3 | 12.2 | 0.00 | 0.00 | 0.00 | 82 | 1009.4 |
| 20260507024005 | 53 | 257 | 5.2 | 12.2 | 0.00 | 0.00 | 0.00 | 82 | 1009.4 |
| 20260507023505 | 53 | 209 | 5.2 | 9.6 | 0.00 | 0.00 | 0.00 | 82 | 1009.4 |
| 20260507023003 | 53 | 244 | 5.2 | 13.0 | 0.00 | 0.00 | 0.00 | 82 | 1009.3 |
| 20260507022504 | 53 | 218 | 5.2 | 13.0 | 0.00 | 0.00 | 0.00 | 82 | 1009.2 |
| 20260507022005 | 53 | 223 | 5.2 | 9.6 | 0.00 | 0.00 | 0.00 | 82 | 1009.2 |
| 20260507021504 | 53 | 273 | 5.2 | 10.4 | 0.00 | 0.00 | 0.00 | 82 | 1009.2 |
| 20260507021003 | 53 | 261 | 5.2 | 10.4 | 0.00 | 0.00 | 0.00 | 82 | 1009.2 |
| 20260507020458 | 53 | 253 | 4.3 | 11.3 | 0.00 | 0.00 | 0.00 | 82 | 1009.2 |
| 20260507015957 | 53 | 255 | 3.5 | 11.3 | 0.00 | 0.00 | 0.00 | 83 | 1009.0 |
| 20260507015456 | 53 | 267 | 3.5 | 7.8 | 0.00 | 0.00 | 0.00 | 83 | 1009.0 |
| 20260507014956 | 53 | 281 | 4.3 | 8.7 | 0.00 | 0.00 | 0.00 | 83 | 1009.0 |
| 20260507014456 | 53 | 252 | 5.2 | 8.7 | 0.00 | 0.00 | 0.00 | 83 | 1008.9 |
| 20260507013957 | 53 | 259 | 4.3 | 8.7 | 0.00 | 0.00 | 0.00 | 82 | 1008.9 |
| 20260507013456 | 53 | 256 | 4.3 | 8.7 | 0.00 | 0.00 | 0.00 | 83 | 1008.9 |
| 20260507012454 | 53 | 261 | 4.3 | 8.7 | 0.00 | 0.00 | 0.00 | 82 | 1008.7 |
| 20260507011955 | 53 | 255 | 5.2 | 11.3 | 0.00 | 0.00 | 0.00 | 82 | 1008.8 |
| 20260507011456 | 53 | 272 | 6.1 | 12.2 | 0.00 | 0.00 | 0.00 | 82 | 1008.8 |
| 20260507010955 | 53 | 234 | 5.2 | 12.2 | 0.00 | 0.00 | 0.00 | 83 | 1008.8 |
| 20260507010457 | 53 | 218 | 5.2 | 12.2 | 0.00 | 0.00 | 0.00 | 82 | 1008.7 |
| 20260507005951 | 54 | 244 | 6.1 | 12.2 | 0.00 | 0.00 | 0.00 | 83 | 1008.7 |
| 20260507005450 | 54 | 244 | 5.2 | 12.2 | 0.00 | 0.00 | 0.00 | 83 | 1008.6 |
| 20260507004950 | 54 | 251 | 4.3 | 11.3 | 0.00 | 0.00 | 0.00 | 83 | 1008.7 |
| 20260507004450 | 54 | 243 | 4.3 | 11.3 | 0.00 | 0.00 | 0.00 | 84 | 1008.6 |
| 20260507003950 | 54 | 235 | 3.5 | 7.8 | 0.00 | 0.00 | 0.00 | 84 | 1008.6 |
| 20260507003449 | 54 | 240 | 4.3 | 8.7 | 0.00 | 0.00 | 0.00 | 83 | 1008.5 |
| 20260507002949 | 54 | 260 | 5.2 | 9.6 | 0.00 | 0.00 | 0.00 | 83 | 1008.5 |
| 20260507002448 | 54 | 259 | 5.2 | 11.3 | 0.00 | 0.00 | 0.00 | 84 | 1008.6 |
| 20260507001947 | 54 | 227 | 5.2 | 11.3 | 0.00 | 0.00 | 0.00 | 84 | 1008.5 |
| 20260507001447 | 54 | 254 | 4.3 | 8.7 | 0.00 | 0.00 | 0.00 | 84 | 1008.4 |
| 20260507000945 | 54 | 237 | 3.5 | 7.0 | 0.00 | 0.00 | 0.00 | 84 | 1008.3 |
| 20260507000446 | 54 | 229 | 3.5 | 7.0 | 0.00 | 0.00 | 0.00 | 84 | 1008.3 |
| 20260506235947 | 54 | 248 | 2.6 | 7.0 | 0.00 | 0.00 | 0.00 | 84 | 1008.3 |
| 20260506235441 | 54 | 233 | 2.6 | 7.0 | 0.00 | 0.00 | 0.00 | 83 | 1008.3 |
| 20260506234941 | 54 | 263 | 3.5 | 7.8 | 0.00 | 0.00 | 0.00 | 83 | 1008.3 |
| 20260506234442 | 54 | 259 | 3.5 | 7.8 | 0.00 | 0.00 | 0.00 | 83 | 1008.2 |
| 20260506233941 | 54 | 209 | 3.5 | 8.7 | 0.00 | 0.00 | 0.00 | 83 | 1008.2 |
| 20260506233442 | 54 | 244 | 4.3 | 8.7 | 0.00 | 0.00 | 0.00 | 83 | 1008.2 |
| 20260506232940 | 55 | 216 | 4.3 | 8.7 | 0.00 | 0.00 | 0.00 | 82 | 1008.0 |
| 20260506232441 | 55 | 246 | 3.5 | 9.6 | 0.00 | 0.00 | 0.00 | 82 | 1008.0 |
| 20260506231943 | 55 | 268 | 4.3 | 9.6 | 0.00 | 0.00 | 0.00 | 82 | 1007.8 |
| 20260506231441 | 55 | 304 | 4.3 | 8.7 | 0.00 | 0.00 | 0.00 | 82 | 1007.9 |
| 20260506230941 | 55 | 315 | 5.2 | 9.6 | 0.00 | 0.00 | 0.00 | 82 | 1008.0 |
| 20260506230441 | 55 | 252 | 6.1 | 10.4 | 0.00 | 0.00 | 0.00 | 82 | 1008.0 |
| 20260506225941 | 55 | 258 | 5.2 | 11.3 | 0.00 | 0.00 | 0.00 | 82 | 1007.9 |
| 20260506225441 | 55 | 258 | 5.2 | 11.3 | 0.00 | 0.00 | 0.00 | 82 | 1007.9 |
| 20260506224940 | 55 | 235 | 5.2 | 9.6 | 0.00 | 0.00 | 0.00 | 81 | 1007.9 |
| 20260506224441 | 55 | 218 | 5.2 | 9.6 | 0.00 | 0.00 | 0.00 | 81 | 1007.9 |
| 20260506223941 | 55 | 242 | 5.2 | 10.4 | 0.00 | 0.00 | 0.00 | 81 | 1007.8 |
| 20260506223442 | 55 | 265 | 4.3 | 10.4 | 0.00 | 0.00 | 0.00 | 81 | 1007.8 |
| 20260506222941 | 55 | 270 | 4.3 | 13.0 | 0.00 | 0.00 | 0.00 | 81 | 1007.8 |
| 20260506222441 | 55 | 269 | 5.2 | 13.0 | 0.00 | 0.00 | 0.00 | 81 | 1007.8 |
| 20260506221935 | 55 | 265 | 4.3 | 8.7 | 0.00 | 0.00 | 0.00 | 81 | 1007.7 |
| 20260506221432 | 55 | 254 | 4.3 | 10.4 | 0.00 | 0.00 | 0.00 | 82 | 1007.6 |
| 20260506220935 | 55 | 252 | 4.3 | 10.4 | 0.00 | 0.00 | 0.00 | 82 | 1007.4 |
| 20260506220433 | 55 | 302 | 4.3 | 10.4 | 0.00 | 0.00 | 0.00 | 82 | 1007.4 |
| 20260506215933 | 55 | 281 | 5.2 | 9.6 | 0.00 | 0.00 | 0.00 | 82 | 1007.0 |
| 20260506215434 | 56 | 280 | 4.3 | 9.6 | 0.00 | 0.00 | 0.00 | 82 | 1006.8 |
| 20260506214932 | 56 | 234 | 5.2 | 9.6 | 0.00 | 0.00 | 0.00 | 82 | 1006.7 |
| 20260506214432 | 56 | 253 | 5.2 | 10.4 | 0.00 | 0.00 | 0.00 | 82 | 1006.6 |
| 20260506213933 | 56 | 267 | 4.3 | 10.4 | 0.00 | 0.00 | 0.00 | 82 | 1006.5 |
| 20260506213432 | 56 | 232 | 3.5 | 7.0 | 0.00 | 0.00 | 0.00 | 81 | 1006.5 |
| 20260506212933 | 57 | 252 | 3.5 | 7.0 | 0.00 | 0.00 | 0.00 | 81 | 1006.3 |
| 20260506212432 | 57 | 269 | 3.5 | 8.7 | 0.00 | 0.00 | 0.00 | 80 | 1006.1 |
| 20260506211932 | 57 | 268 | 3.5 | 8.7 | 0.00 | 0.00 | 0.00 | 80 | 1006.1 |
| 20260506211435 | 57 | 337 | 3.5 | 7.0 | 0.00 | 0.00 | 0.00 | 79 | 1006.0 |
| 20260506210934 | 57 | 266 | 3.5 | 7.0 | 0.00 | 0.00 | 0.00 | 78 | 1006.1 |
| 20260506210431 | 58 | 281 | 4.3 | 9.6 | 0.00 | 0.00 | 0.00 | 78 | 1006.1 |
| 20260506205932 | 58 | 281 | 4.3 | 9.6 | 0.00 | 0.00 | 0.00 | 78 | 1005.9 |
| 20260506205431 | 58 | 321 | 4.3 | 10.4 | 0.00 | 0.00 | 0.00 | 77 | 1005.9 |
| 20260506204934 | 58 | 281 | 4.3 | 10.4 | 0.00 | 0.00 | 0.00 | 77 | 1006.0 |
| 20260506204429 | 58 | 288 | 6.1 | 12.2 | 0.00 | 0.00 | 0.00 | 77 | 1006.1 |
| 20260506203930 | 58 | 323 | 7.8 | 17.4 | 0.00 | 0.00 | 0.00 | 76 | 1006.1 |
| 20260506203430 | 58 | 296 | 7.8 | 17.4 | 0.00 | 0.00 | 0.00 | 76 | 1006.1 |
| 20260506202929 | 58 | 282 | 6.1 | 17.4 | 0.00 | 0.00 | 0.00 | 75 | 1006.1 |
| 20260506202429 | 59 | 277 | 6.1 | 16.5 | 0.00 | 0.00 | 0.00 | 75 | 1006.0 |
| 20260506201930 | 59 | 302 | 7.0 | 14.8 | 0.00 | 0.00 | 0.00 | 75 | 1006.1 |
| 20260506201430 | 59 | 282 | 7.8 | 14.8 | 0.00 | 0.00 | 0.00 | 74 | 1006.0 |
| 20260506200932 | 59 | 287 | 7.0 | 17.4 | 0.00 | 0.00 | 0.00 | 73 | 1006.0 |
| 20260506200426 | 60 | 266 | 7.0 | 17.4 | 0.00 | 0.00 | 0.00 | 72 | 1006.0 |
| 20260506195925 | 60 | 283 | 9.6 | 19.1 | 0.00 | 0.00 | 0.00 | 71 | 1005.8 |
| 20260506195425 | 61 | 307 | 12.2 | 23.5 | 0.00 | 0.00 | 0.00 | 69 | 1005.7 |
| 20260506194924 | 62 | 270 | 11.3 | 23.5 | 0.00 | 0.00 | 0.00 | 68 | 1005.6 |
| 20260506194423 | 63 | 309 | 9.6 | 19.1 | 0.00 | 0.00 | 0.00 | 65 | 1005.5 |
| 20260506193933 | 64 | 227 | 7.8 | 17.4 | 0.00 | 0.00 | 0.00 | 60 | 1005.5 |
| 20260506193424 | 65 | 284 | 6.1 | 17.4 | 0.00 | 0.00 | 0.00 | 56 | 1005.2 |
| 20260506192924 | 64 | 202 | 4.3 | 8.7 | 0.00 | 0.00 | 0.00 | 49 | 1004.5 |
| 20260506192424 | 64 | 191 | 4.3 | 8.7 | 0.00 | 0.00 | 0.00 | 51 | 1004.3 |
| 20260506191919 | 63 | 197 | 4.3 | 8.7 | 0.00 | 0.00 | 0.00 | 52 | 1004.2 |
| 20260506191417 | 63 | 190 | 4.3 | 9.6 | 0.00 | 0.00 | 0.00 | 53 | 1004.2 |
| 20260506190913 | 63 | 195 | 3.5 | 9.6 | 0.00 | 0.00 | 0.00 | 55 | 1004.1 |
| 20260506190410 | 63 | 190 | 2.6 | 6.1 | 0.00 | 0.00 | 0.00 | 53 | 1003.9 |
| 20260506185912 | 64 | 209 | 1.7 | 6.1 | 0.00 | 0.00 | 0.00 | 54 | 1004.0 |
| 20260506185410 | 64 | 196 | 0.9 | 4.3 | 0.00 | 0.00 | 0.00 | 53 | 1003.8 |
| 20260506184910 | 65 | 195 | 0.9 | 3.5 | 0.00 | 0.00 | 0.00 | 52 | 1003.7 |
| 20260506184410 | 65 | 195 | 1.7 | 3.5 | 0.00 | 0.00 | 0.00 | 51 | 1003.5 |
| 20260506183910 | 66 | 196 | 1.7 | 2.6 | 0.00 | 0.00 | 0.00 | 50 | 1003.3 |
| 20260506183411 | 67 | 196 | 1.7 | 4.3 | 0.00 | 0.00 | 0.00 | 50 | 1003.2 |
| 20260506182909 | 67 | 197 | 0.9 | 4.3 | 0.00 | 0.00 | 0.00 | 49 | 1003.0 |
| 20260506182408 | 68 | 182 | 0.9 | 2.6 | 0.00 | 0.00 | 0.00 | 49 | 1002.9 |
| 20260506181907 | 68 | 156 | 1.7 | 2.6 | 0.00 | 0.00 | 0.00 | 47 | 1002.8 |
| 20260506181404 | 68 | 154 | 1.7 | 3.5 | 0.00 | 0.00 | 0.00 | 46 | 1002.7 |
| 20260506180905 | 69 | 148 | 2.6 | 5.2 | 0.00 | 0.00 | 0.00 | 45 | 1002.7 |
| 20260506180404 | 69 | 162 | 3.5 | 6.1 | 0.00 | 0.00 | 0.00 | 45 | 1002.6 |
| 20260506175904 | 70 | 140 | 3.5 | 6.1 | 0.00 | 0.00 | 0.00 | 44 | 1002.7 |
| 20260506175403 | 70 | 132 | 2.6 | 4.3 | 0.00 | 0.00 | 0.00 | 44 | 1002.8 |
| 20260506174901 | 71 | 151 | 2.6 | 5.2 | 0.00 | 0.00 | 0.00 | 44 | 1002.8 |
| 20260506174400 | 71 | 143 | 1.7 | 5.2 | 0.00 | 0.00 | 0.00 | 43 | 1002.8 |
| 20260506173901 | 71 | 156 | 2.6 | 4.3 | 0.00 | 0.00 | 0.00 | 43 | 1002.8 |
| 20260506173356 | 72 | 177 | 3.5 | 5.2 | 0.00 | 0.00 | 0.00 | 41 | 1002.8 |
| 20260506172855 | 72 | 165 | 3.5 | 7.8 | 0.00 | 0.00 | 0.00 | 41 | 1002.7 |
| 20260506172352 | 73 | 160 | 3.5 | 8.7 | 0.00 | 0.00 | 0.00 | 40 | 1002.7 |
| 20260506171852 | 73 | 170 | 3.5 | 8.7 | 0.00 | 0.00 | 0.00 | 40 | 1002.7 |
| 20260506171350 | 74 | 130 | 3.5 | 7.0 | 0.00 | 0.00 | 0.00 | 40 | 1002.5 |
| 20260506170850 | 74 | 127 | 3.5 | 8.7 | 0.00 | 0.00 | 0.00 | 39 | 1002.6 |
| 20260506170349 | 74 | 167 | 3.5 | 8.7 | 0.00 | 0.00 | 0.00 | 38 | 1002.7 |
| 20260506165846 | 74 | 113 | 4.3 | 8.7 | 0.00 | 0.00 | 0.00 | 39 | 1002.8 |
| 20260506165346 | 74 | 140 | 3.5 | 8.7 | 0.00 | 0.00 | 0.00 | 39 | 1002.9 |
| 20260506164846 | 74 | 154 | 3.5 | 7.8 | 0.00 | 0.00 | 0.00 | 39 | 1002.9 |